Back to catalog

STARLINK-31234

AliveCommunicationsVLEO
NORAD 59043·PAYLOAD·🇺🇸 United States

Launched Feb 25, 2024 from Cape Canaveral Space Force Station

Loading…

Next Passes (next 24 hours)

TLE

FreshSource: CelesTrak SupGP

Epoch: Sep 14, 2026, 21:24 UTC

1 59043C 24038W   26257.89215278  .00051388  00000+0  18613-2 0  2574
2 59043  43.0040  35.2338 0001352 273.7144  33.5191 15.27552771    12

Track STARLINK-31234 in real time with AllMySat

Download on the App Store